HORIZON (RS59S)

Last updated on Thu Oct 30 2025 00:03:10 GMT+0000 (Coordinated Universal Time)

1 61757U 24199Y 25302.53788668 .00053092 00000+0 10244-2 0 9995 2 61757 97.3283 172.8418 0010337 37.1384 323.0579 15.47601086102012
UTC large
Height (km)
Speed (km/s)
/
Latitude / Longitude
Inclination (degrees)
Orbital Period (minutes)
Azimuth
Elevation
Range (km)
Doppler Factor

Next 0 passes for location: London (51.5072 / 0.1276)

Sorry there are no passes over London.